| time (UTC) | temp C | wind direction | speed KPH | gust KPH | rain 1hr cm | rain 24hr cm | rain mn cm | humidity % | barometer mb |
| 20260507150028 | 16 | 186 | 6.4 | 12.9 | 0.00 | 0.00 | 0.00 | 46 | 1019.4 |
| 20260507145528 | 15 | 196 | 3.2 | 9.7 | 0.00 | 0.00 | 0.00 | 46 | 1019.5 |
| 20260507145028 | 15 | 197 | 3.2 | 9.7 | 0.00 | 0.00 | 0.00 | 47 | 1019.5 |
| 20260507144528 | 15 | 219 | 4.8 | 9.7 | 0.00 | 0.00 | 0.00 | 49 | 1019.6 |
| 20260507144028 | 15 | 181 | 4.8 | 9.7 | 0.00 | 0.00 | 0.00 | 50 | 1019.6 |
| 20260507143528 | 15 | 193 | 6.4 | 14.5 | 0.00 | 0.00 | 0.00 | 51 | 1019.6 |
| 20260507141028 | 13 | 197 | 1.6 | 6.4 | 0.00 | 0.00 | 0.00 | 62 | 1019.7 |
| 20260507140528 | 13 | 225 | 3.2 | 8.0 | 0.00 | 0.00 | 0.00 | 63 | 1019.6 |
| 20260507140028 | 12 | 241 | 1.6 | 9.7 | 0.00 | 0.00 | 0.00 | 64 | 1019.7 |
| 20260507135528 | 12 | 194 | 3.2 | 9.7 | 0.00 | 0.00 | 0.00 | 65 | 1019.6 |
| 20260507135028 | 12 | 205 | 0.0 | 4.8 | 0.00 | 0.00 | 0.00 | 67 | 1019.6 |
| 20260507134528 | 12 | 222 | 1.6 | 4.8 | 0.00 | 0.00 | 0.00 | 68 | 1019.6 |
| 20260507134028 | 11 | 235 | 0.0 | 1.6 | 0.00 | 0.00 | 0.00 | 71 | 1019.6 |
| 20260507133528 | 11 | 241 | 1.6 | 4.8 | 0.00 | 0.00 | 0.00 | 72 | 1019.5 |
| 20260507133028 | 11 | 207 | 0.0 | 4.8 | 0.00 | 0.00 | 0.00 | 76 | 1019.5 |
| 20260507132528 | 10 | 227 | 0.0 | 3.2 | 0.00 | 0.00 | 0.00 | 80 | 1019.5 |
| 20260507132028 | 10 | 242 | 0.0 | 3.2 | 0.00 | 0.00 | 0.00 | 82 | 1019.5 |
| 20260507131528 | 9 | 234 | 0.0 | 3.2 | 0.00 | 0.00 | 0.00 | 84 | 1019.6 |
| 20260507131028 | 8 | 224 | 0.0 | 1.6 | 0.00 | 0.00 | 0.00 | 87 | 1019.6 |
| 20260507130528 | 8 | 245 | 0.0 | 1.6 | 0.00 | 0.00 | 0.00 | 88 | 1019.6 |
| 20260507130028 | 8 | 259 | 0.0 | 0.0 | 0.00 | 0.00 | 0.00 | 91 | 1019.4 |
| 20260507125528 | 7 | 259 | 1.6 | 3.2 | 0.00 | 0.00 | 0.00 | 92 | 1019.2 |
| 20260507125028 | 7 | 227 | 0.0 | 3.2 | 0.00 | 0.00 | 0.00 | 93 | 1019.2 |
| 20260507124528 | 6 | 222 | 0.0 | 1.6 | 0.00 | 0.00 | 0.00 | 94 | 1019.1 |
| 20260507124028 | 6 | 300 | 0.0 | 0.0 | 0.00 | 0.00 | 0.00 | 94 | 1019.0 |
| 20260507123528 | 6 | 274 | 0.0 | 0.0 | 0.00 | 0.00 | 0.00 | 94 | 1019.1 |
| 20260507120528 | 5 | 255 | 0.0 | 1.6 | 0.00 | 0.00 | 0.00 | 94 | 1018.9 |
| 20260507120028 | 5 | 262 | 0.0 | 1.6 | 0.00 | 0.00 | 0.00 | 94 | 1018.7 |
| 20260507115528 | 5 | 267 | 0.0 | 3.2 | 0.00 | 0.00 | 0.00 | 94 | 1018.6 |
| 20260507115028 | 5 | 265 | 0.0 | 3.2 | 0.00 | 0.00 | 0.00 | 94 | 1018.6 |
| 20260507114528 | 6 | 252 | 0.0 | 1.6 | 0.00 | 0.00 | 0.00 | 94 | 1018.5 |
| 20260507114028 | 6 | 255 | 0.0 | 3.2 | 0.00 | 0.00 | 0.00 | 94 | 1018.6 |
| 20260507113528 | 6 | 252 | 0.0 | 3.2 | 0.00 | 0.00 | 0.00 | 94 | 1018.6 |
| 20260507113028 | 6 | 248 | 0.0 | 1.6 | 0.00 | 0.00 | 0.00 | 94 | 1018.6 |
| 20260507112528 | 6 | 252 | 0.0 | 3.2 | 0.00 | 0.00 | 0.00 | 93 | 1018.6 |
| 20260507112028 | 6 | 252 | 0.0 | 3.2 | 0.00 | 0.00 | 0.00 | 93 | 1018.5 |
| 20260507111528 | 6 | 243 | 0.0 | 1.6 | 0.00 | 0.00 | 0.00 | 94 | 1018.5 |
| 20260507111028 | 6 | 252 | 0.0 | 3.2 | 0.00 | 0.00 | 0.00 | 93 | 1018.5 |
| 20260507110528 | 6 | 239 | 0.0 | 3.2 | 0.00 | 0.00 | 0.00 | 93 | 1018.6 |
| 20260507110028 | 6 | 252 | 0.0 | 3.2 | 0.00 | 0.00 | 0.00 | 93 | 1018.5 |
| 20260507105528 | 6 | 264 | 0.0 | 3.2 | 0.00 | 0.00 | 0.00 | 93 | 1018.5 |
| 20260507105028 | 6 | 255 | 0.0 | 1.6 | 0.00 | 0.00 | 0.00 | 93 | 1018.5 |
| 20260507104528 | 6 | 245 | 0.0 | 1.6 | 0.00 | 0.00 | 0.00 | 93 | 1018.5 |
| 20260507104028 | 7 | 256 | 0.0 | 0.0 | 0.00 | 0.00 | 0.00 | 93 | 1018.5 |
| 20260507103528 | 7 | 248 | 0.0 | 3.2 | 0.00 | 0.00 | 0.00 | 93 | 1018.5 |
| 20260507103028 | 7 | 267 | 0.0 | 0.0 | 0.00 | 0.00 | 0.00 | 93 | 1018.5 |
| 20260507102528 | 7 | 251 | 0.0 | 1.6 | 0.00 | 0.00 | 0.00 | 93 | 1018.5 |
| 20260507102028 | 7 | 234 | 0.0 | 1.6 | 0.00 | 0.00 | 0.00 | 93 | 1018.5 |
| 20260507101528 | 7 | 238 | 0.0 | 1.6 | 0.00 | 0.00 | 0.00 | 93 | 1018.5 |
| 20260507101028 | 7 | 231 | 0.0 | 1.6 | 0.00 | 0.00 | 0.00 | 93 | 1018.6 |
| 20260507100528 | 7 | 237 | 0.0 | 0.0 | 0.00 | 0.00 | 0.00 | 93 | 1018.6 |
| 20260507100028 | 7 | 244 | 0.0 | 1.6 | 0.00 | 0.00 | 0.00 | 93 | 1018.7 |
| 20260507095528 | 7 | 251 | 0.0 | 0.0 | 0.00 | 0.00 | 0.00 | 92 | 1018.7 |
| 20260507095028 | 7 | 251 | 0.0 | 0.0 | 0.00 | 0.00 | 0.00 | 92 | 1018.6 |
| 20260507094528 | 7 | 252 | 0.0 | 0.0 | 0.00 | 0.00 | 0.00 | 92 | 1018.5 |
| 20260507094028 | 7 | 252 | 0.0 | 0.0 | 0.00 | 0.00 | 0.00 | 92 | 1018.5 |
| 20260507093528 | 7 | 247 | 0.0 | 1.6 | 0.00 | 0.00 | 0.00 | 92 | 1018.4 |
| 20260507093028 | 7 | 242 | 0.0 | 0.0 | 0.00 | 0.00 | 0.00 | 91 | 1018.3 |
| 20260507092528 | 7 | 258 | 0.0 | 0.0 | 0.00 | 0.00 | 0.00 | 90 | 1018.3 |
| 20260507092028 | 7 | 288 | 0.0 | 0.0 | 0.00 | 0.00 | 0.00 | 90 | 1018.4 |
| 20260507091528 | 7 | 303 | 0.0 | 1.6 | 0.00 | 0.00 | 0.00 | 90 | 1018.3 |
| 20260507091028 | 7 | 228 | 0.0 | 1.6 | 0.00 | 0.00 | 0.00 | 90 | 1018.2 |
| 20260507085528 | 8 | 242 | 0.0 | 0.0 | 0.00 | 0.00 | 0.00 | 87 | 1018.3 |
| 20260507085028 | 8 | 240 | 0.0 | 1.6 | 0.00 | 0.00 | 0.00 | 87 | 1018.6 |
| 20260507084528 | 8 | 221 | 0.0 | 1.6 | 0.00 | 0.00 | 0.00 | 86 | 1018.4 |
| 20260507084028 | 8 | 198 | 0.0 | 0.0 | 0.00 | 0.00 | 0.00 | 86 | 1018.3 |
| 20260507083528 | 8 | 271 | 0.0 | 0.0 | 0.00 | 0.00 | 0.00 | 85 | 1018.4 |
| 20260507083028 | 8 | 268 | 0.0 | 0.0 | 0.00 | 0.00 | 0.00 | 86 | 1018.6 |
| 20260507082528 | 8 | 202 | 0.0 | 0.0 | 0.00 | 0.00 | 0.00 | 86 | 1018.6 |
| 20260507082028 | 8 | 251 | 0.0 | 0.0 | 0.00 | 0.00 | 0.00 | 85 | 1018.7 |
| 20260507081528 | 8 | 265 | 0.0 | 4.8 | 0.00 | 0.00 | 0.00 | 83 | 1018.9 |
| 20260507081028 | 8 | 295 | 1.6 | 3.2 | 0.00 | 0.00 | 0.00 | 82 | 1018.9 |
| 20260507080528 | 8 | 301 | 1.6 | 3.2 | 0.00 | 0.00 | 0.00 | 83 | 1018.8 |
| 20260507080029 | 8 | 293 | 0.0 | 0.0 | 0.00 | 0.00 | 0.00 | 83 | 1018.7 |
| 20260507075028 | 8 | 315 | 0.0 | 3.2 | 0.00 | 0.00 | 0.00 | 81 | 1018.5 |
| 20260507074528 | 8 | 320 | 0.0 | 0.0 | 0.00 | 0.00 | 0.00 | 80 | 1018.5 |
| 20260507074028 | 8 | 342 | 0.0 | 0.0 | 0.00 | 0.00 | 0.00 | 79 | 1018.5 |
| 20260507073528 | 8 | 335 | 0.0 | 0.0 | 0.00 | 0.00 | 0.00 | 78 | 1018.5 |
| 20260507073028 | 8 | 312 | 0.0 | 0.0 | 0.00 | 0.00 | 0.00 | 78 | 1018.6 |
| 20260507072528 | 8 | 287 | 0.0 | 3.2 | 0.00 | 0.00 | 0.00 | 80 | 1018.7 |
| 20260507072028 | 8 | 227 | 0.0 | 0.0 | 0.00 | 0.00 | 0.00 | 79 | 1018.5 |
| 20260507071528 | 8 | 232 | 0.0 | 0.0 | 0.00 | 0.00 | 0.00 | 78 | 1018.6 |
| 20260507071028 | 8 | 232 | 0.0 | 0.0 | 0.00 | 0.00 | 0.00 | 78 | 1018.7 |
| 20260507070528 | 8 | 232 | 0.0 | 0.0 | 0.00 | 0.00 | 0.00 | 77 | 1018.7 |
| 20260507070028 | 8 | 232 | 0.0 | 0.0 | 0.00 | 0.00 | 0.00 | 76 | 1018.8 |
| 20260507065528 | 8 | 257 | 0.0 | 0.0 | 0.00 | 0.00 | 0.00 | 77 | 1018.8 |
| 20260507065028 | 8 | 298 | 0.0 | 1.6 | 0.00 | 0.00 | 0.00 | 77 | 1018.9 |
| 20260507064528 | 8 | 277 | 0.0 | 1.6 | 0.00 | 0.00 | 0.00 | 78 | 1019.1 |
| 20260507064028 | 8 | 262 | 0.0 | 0.0 | 0.00 | 0.00 | 0.00 | 78 | 1018.9 |
| 20260507063528 | 8 | 176 | 0.0 | 0.0 | 0.00 | 0.00 | 0.00 | 78 | 1018.9 |
| 20260507063028 | 9 | 228 | 0.0 | 0.0 | 0.00 | 0.00 | 0.00 | 78 | 1019.2 |
| 20260507062528 | 9 | 250 | 0.0 | 0.0 | 0.00 | 0.00 | 0.00 | 78 | 1019.2 |
| 20260507062028 | 9 | 285 | 0.0 | 1.6 | 0.00 | 0.00 | 0.00 | 77 | 1019.2 |
| 20260507061529 | 9 | 270 | 0.0 | 1.6 | 0.00 | 0.00 | 0.00 | 76 | 1019.2 |
| 20260507061028 | 10 | 249 | 0.0 | 1.6 | 0.00 | 0.00 | 0.00 | 73 | 1019.2 |
| 20260507060528 | 9 | 300 | 0.0 | 3.2 | 0.00 | 0.00 | 0.00 | 72 | 1019.1 |
| 20260507060028 | 9 | 294 | 1.6 | 4.8 | 0.00 | 0.00 | 0.00 | 76 | 1019.1 |
| 20260507055528 | 9 | 248 | 0.0 | 1.6 | 0.00 | 0.00 | 0.00 | 77 | 1019.1 |
| 20260507054028 | 9 | 231 | 0.0 | 1.6 | 0.00 | 0.00 | 0.00 | 77 | 1018.8 |
| 20260507053528 | 9 | 222 | 0.0 | 1.6 | 0.00 | 0.00 | 0.00 | 77 | 1018.8 |
| 20260507053028 | 9 | 215 | 0.0 | 1.6 | 0.00 | 0.00 | 0.00 | 77 | 1018.6 |
| 20260507052528 | 9 | 229 | 0.0 | 0.0 | 0.00 | 0.00 | 0.00 | 77 | 1018.6 |
| 20260507051028 | 10 | 170 | 0.0 | 0.0 | 0.00 | 0.00 | 0.00 | 74 | 1018.7 |
| 20260507050528 | 10 | 183 | 0.0 | 1.6 | 0.00 | 0.00 | 0.00 | 73 | 1018.6 |
| 20260507043028 | 10 | 199 | 0.0 | 1.6 | 0.00 | 0.00 | 0.00 | 70 | 1018.5 |
| 20260507042528 | 10 | 156 | 0.0 | 1.6 | 0.00 | 0.00 | 0.00 | 70 | 1018.5 |
| 20260507042028 | 10 | 197 | 0.0 | 1.6 | 0.00 | 0.00 | 0.00 | 69 | 1018.5 |
| 20260507041528 | 10 | 196 | 0.0 | 0.0 | 0.00 | 0.00 | 0.00 | 69 | 1018.5 |
| 20260507041028 | 11 | 68 | 0.0 | 4.8 | 0.00 | 0.00 | 0.00 | 70 | 1018.5 |
| 20260507040528 | 11 | 83 | 1.6 | 3.2 | 0.00 | 0.00 | 0.00 | 70 | 1018.5 |
| 20260507040028 | 11 | 99 | 1.6 | 3.2 | 0.00 | 0.00 | 0.00 | 69 | 1018.5 |
| 20260507035528 | 11 | 97 | 0.0 | 3.2 | 0.00 | 0.00 | 0.00 | 67 | 1018.7 |
| 20260507035028 | 11 | 138 | 0.0 | 0.0 | 0.00 | 0.00 | 0.00 | 66 | 1018.6 |
| 20260507034528 | 11 | 108 | 0.0 | 1.6 | 0.00 | 0.00 | 0.00 | 65 | 1018.5 |
| 20260507034028 | 11 | 86 | 1.6 | 4.8 | 0.00 | 0.00 | 0.00 | 64 | 1018.5 |
| 20260507033528 | 11 | 102 | 0.0 | 3.2 | 0.00 | 0.00 | 0.00 | 64 | 1018.5 |
| 20260507033028 | 11 | 85 | 0.0 | 3.2 | 0.00 | 0.00 | 0.00 | 66 | 1018.4 |
| 20260507032528 | 11 | 101 | 0.0 | 1.6 | 0.00 | 0.00 | 0.00 | 66 | 1018.4 |
| 20260507032028 | 11 | 81 | 0.0 | 1.6 | 0.00 | 0.00 | 0.00 | 67 | 1018.2 |
| 20260507031528 | 11 | 92 | 1.6 | 3.2 | 0.00 | 0.00 | 0.00 | 67 | 1018.1 |
| 20260507030028 | 11 | 90 | 0.0 | 1.6 | 0.00 | 0.00 | 0.00 | 64 | 1018.0 |
| 20260507025528 | 12 | 85 | 0.0 | 1.6 | 0.00 | 0.00 | 0.00 | 62 | 1018.0 |
| 20260507025028 | 12 | 100 | 0.0 | 1.6 | 0.00 | 0.00 | 0.00 | 62 | 1017.9 |
| 20260507024528 | 12 | 59 | 0.0 | 1.6 | 0.00 | 0.00 | 0.00 | 61 | 1017.8 |
| 20260507022028 | 12 | 50 | 0.0 | 4.8 | 0.00 | 0.00 | 0.00 | 59 | 1017.8 |
| 20260507021528 | 12 | 38 | 1.6 | 4.8 | 0.00 | 0.00 | 0.00 | 58 | 1017.7 |
| 20260507021028 | 12 | 70 | 0.0 | 3.2 | 0.00 | 0.00 | 0.00 | 57 | 1017.7 |
| 20260507020528 | 12 | 21 | 0.0 | 6.4 | 0.00 | 0.00 | 0.00 | 56 | 1017.6 |
| 20260507020028 | 13 | 46 | 0.0 | 4.8 | 0.00 | 0.00 | 0.00 | 56 | 1017.6 |
| 20260507015528 | 13 | 34 | 1.6 | 3.2 | 0.00 | 0.00 | 0.00 | 55 | 1017.6 |
| 20260507015028 | 13 | 41 | 0.0 | 3.2 | 0.00 | 0.00 | 0.00 | 54 | 1017.5 |
| 20260507014528 | 13 | 49 | 1.6 | 8.0 | 0.00 | 0.00 | 0.00 | 53 | 1017.4 |
| 20260507014028 | 13 | 44 | 1.6 | 8.0 | 0.00 | 0.00 | 0.00 | 52 | 1017.3 |
| 20260507013528 | 13 | 53 | 1.6 | 4.8 | 0.00 | 0.00 | 0.00 | 52 | 1017.3 |
| 20260507013028 | 13 | 38 | 1.6 | 4.8 | 0.00 | 0.00 | 0.00 | 51 | 1017.3 |
| 20260507012528 | 13 | 33 | 1.6 | 9.7 | 0.00 | 0.00 | 0.00 | 51 | 1017.2 |
| 20260507012028 | 13 | 63 | 1.6 | 11.3 | 0.00 | 0.00 | 0.00 | 51 | 1017.2 |
| 20260507011528 | 14 | 19 | 1.6 | 4.8 | 0.00 | 0.00 | 0.00 | 49 | 1017.1 |
| 20260507011028 | 14 | 310 | 1.6 | 8.0 | 0.00 | 0.00 | 0.00 | 48 | 1017.1 |
| 20260507010528 | 14 | 36 | 1.6 | 3.2 | 0.00 | 0.00 | 0.00 | 49 | 1017.0 |
| 20260507005028 | 14 | 48 | 3.2 | 6.4 | 0.00 | 0.00 | 0.00 | 48 | 1016.9 |
| 20260507004528 | 14 | 27 | 1.6 | 4.8 | 0.00 | 0.00 | 0.00 | 49 | 1016.9 |
| 20260507004028 | 14 | 38 | 3.2 | 12.9 | 0.00 | 0.00 | 0.00 | 50 | 1016.7 |
| 20260507003528 | 15 | 40 | 1.6 | 4.8 | 0.00 | 0.00 | 0.00 | 50 | 1016.7 |
| 20260507003028 | 15 | 32 | 3.2 | 9.7 | 0.00 | 0.00 | 0.00 | 49 | 1016.6 |
| 20260507002528 | 15 | 62 | 4.8 | 11.3 | 0.00 | 0.00 | 0.00 | 48 | 1016.5 |
| 20260507002028 | 15 | 52 | 4.8 | 11.3 | 0.00 | 0.00 | 0.00 | 47 | 1016.5 |
| 20260507001528 | 15 | 32 | 4.8 | 11.3 | 0.00 | 0.00 | 0.00 | 46 | 1016.5 |
| 20260507001028 | 15 | 31 | 3.2 | 9.7 | 0.00 | 0.00 | 0.00 | 45 | 1016.5 |
| 20260507000528 | 15 | 51 | 3.2 | 6.4 | 0.00 | 0.00 | 0.00 | 45 | 1016.5 |
| 20260507000028 | 15 | 36 | 3.2 | 9.7 | 0.00 | 0.00 | 0.00 | 45 | 1016.4 |
| 20260506235528 | 16 | 37 | 3.2 | 9.7 | 0.00 | 0.00 | 0.00 | 44 | 1016.4 |
| 20260506235028 | 16 | 57 | 3.2 | 12.9 | 0.00 | 0.00 | 0.00 | 45 | 1016.2 |
| 20260506234528 | 16 | 25 | 1.6 | 6.4 | 0.00 | 0.00 | 0.00 | 44 | 1016.3 |
| 20260506234028 | 16 | 28 | 4.8 | 11.3 | 0.00 | 0.00 | 0.00 | 43 | 1016.2 |
| 20260506233528 | 16 | 18 | 1.6 | 9.7 | 0.00 | 0.00 | 0.00 | 45 | 1016.2 |
| 20260506233028 | 16 | 45 | 4.8 | 14.5 | 0.00 | 0.00 | 0.00 | 44 | 1016.2 |
| 20260506232528 | 16 | 59 | 4.8 | 11.3 | 0.00 | 0.00 | 0.00 | 44 | 1016.2 |
| 20260506232028 | 16 | 46 | 6.4 | 14.5 | 0.00 | 0.00 | 0.00 | 44 | 1016.1 |
| 20260506231528 | 16 | 59 | 4.8 | 9.7 | 0.00 | 0.00 | 0.00 | 43 | 1016.0 |
| 20260506231028 | 16 | 46 | 4.8 | 12.9 | 0.00 | 0.00 | 0.00 | 43 | 1015.9 |
| 20260506230528 | 16 | 52 | 6.4 | 12.9 | 0.00 | 0.00 | 0.00 | 42 | 1015.9 |
| 20260506230028 | 17 | 61 | 4.8 | 12.9 | 0.00 | 0.00 | 0.00 | 42 | 1015.8 |
| 20260506225528 | 17 | 51 | 6.4 | 14.5 | 0.00 | 0.00 | 0.00 | 42 | 1015.8 |
| 20260506225028 | 17 | 66 | 6.4 | 12.9 | 0.00 | 0.00 | 0.00 | 41 | 1015.7 |
| 20260506224528 | 17 | 51 | 6.4 | 12.9 | 0.00 | 0.00 | 0.00 | 42 | 1015.7 |
| 20260506224028 | 17 | 42 | 4.8 | 11.3 | 0.00 | 0.00 | 0.00 | 42 | 1015.6 |
| 20260506223528 | 17 | 16 | 4.8 | 9.7 | 0.00 | 0.00 | 0.00 | 42 | 1015.5 |
| 20260506223028 | 17 | 34 | 4.8 | 9.7 | 0.00 | 0.00 | 0.00 | 41 | 1015.5 |
| 20260506222528 | 17 | 3 | 3.2 | 6.4 | 0.00 | 0.00 | 0.00 | 42 | 1015.5 |
| 20260506222028 | 17 | 16 | 3.2 | 12.9 | 0.00 | 0.00 | 0.00 | 43 | 1015.5 |
| 20260506221528 | 17 | 39 | 3.2 | 11.3 | 0.00 | 0.00 | 0.00 | 42 | 1015.5 |
| 20260506221028 | 17 | 40 | 4.8 | 12.9 | 0.00 | 0.00 | 0.00 | 42 | 1015.5 |
| 20260506220528 | 17 | 47 | 4.8 | 11.3 | 0.00 | 0.00 | 0.00 | 41 | 1015.5 |
| 20260506220028 | 17 | 45 | 4.8 | 12.9 | 0.00 | 0.00 | 0.00 | 43 | 1015.5 |
| 20260506215528 | 17 | 55 | 4.8 | 11.3 | 0.00 | 0.00 | 0.00 | 42 | 1015.5 |
| 20260506215028 | 17 | 45 | 4.8 | 12.9 | 0.00 | 0.00 | 0.00 | 44 | 1015.5 |
| 20260506214528 | 17 | 356 | 3.2 | 11.3 | 0.00 | 0.00 | 0.00 | 42 | 1015.6 |
| 20260506214028 | 17 | 32 | 4.8 | 14.5 | 0.00 | 0.00 | 0.00 | 42 | 1015.6 |
| 20260506213528 | 17 | 39 | 4.8 | 12.9 | 0.00 | 0.00 | 0.00 | 42 | 1015.6 |
| 20260506213028 | 18 | 45 | 6.4 | 12.9 | 0.00 | 0.00 | 0.00 | 41 | 1015.6 |
| 20260506212528 | 17 | 48 | 6.4 | 14.5 | 0.00 | 0.00 | 0.00 | 43 | 1015.6 |
| 20260506212028 | 17 | 44 | 4.8 | 14.5 | 0.00 | 0.00 | 0.00 | 43 | 1015.7 |
| 20260506211528 | 18 | 21 | 4.8 | 9.7 | 0.00 | 0.00 | 0.00 | 41 | 1015.6 |
| 20260506211028 | 18 | 34 | 3.2 | 8.0 | 0.00 | 0.00 | 0.00 | 40 | 1015.6 |
| 20260506210528 | 17 | 30 | 4.8 | 9.7 | 0.00 | 0.00 | 0.00 | 42 | 1015.7 |
| 20260506210028 | 17 | 15 | 4.8 | 14.5 | 0.00 | 0.00 | 0.00 | 42 | 1015.7 |
| 20260506205528 | 18 | 50 | 6.4 | 16.1 | 0.00 | 0.00 | 0.00 | 41 | 1015.7 |
| 20260506205028 | 18 | 30 | 4.8 | 14.5 | 0.00 | 0.00 | 0.00 | 41 | 1015.8 |
| 20260506204528 | 18 | 33 | 6.4 | 19.3 | 0.00 | 0.00 | 0.00 | 41 | 1015.8 |
| 20260506204028 | 18 | 27 | 4.8 | 14.5 | 0.00 | 0.00 | 0.00 | 41 | 1015.8 |
| 20260506203528 | 18 | 31 | 3.2 | 9.7 | 0.00 | 0.00 | 0.00 | 42 | 1016.0 |
| 20260506203028 | 18 | 30 | 6.4 | 16.1 | 0.00 | 0.00 | 0.00 | 41 | 1016.1 |
| 20260506202528 | 18 | 342 | 6.4 | 16.1 | 0.00 | 0.00 | 0.00 | 40 | 1016.1 |
| 20260506202028 | 18 | 50 | 4.8 | 12.9 | 0.00 | 0.00 | 0.00 | 42 | 1016.3 |
| 20260506201528 | 17 | 78 | 8.0 | 17.7 | 0.00 | 0.00 | 0.00 | 41 | 1016.3 |
| 20260506201028 | 17 | 43 | 4.8 | 14.5 | 0.00 | 0.00 | 0.00 | 42 | 1016.3 |
| 20260506200528 | 17 | 65 | 8.0 | 14.5 | 0.00 | 0.00 | 0.00 | 43 | 1016.2 |
| 20260506200028 | 17 | 53 | 8.0 | 14.5 | 0.00 | 0.00 | 0.00 | 43 | 1016.3 |
| 20260506195528 | 17 | 67 | 6.4 | 14.5 | 0.00 | 0.00 | 0.00 | 43 | 1016.2 |
| 20260506195028 | 17 | 66 | 6.4 | 11.3 | 0.00 | 0.00 | 0.00 | 43 | 1016.3 |
| 20260506194528 | 17 | 53 | 8.0 | 16.1 | 0.00 | 0.00 | 0.00 | 44 | 1016.3 |
| 20260506194028 | 17 | 12 | 4.8 | 9.7 | 0.00 | 0.00 | 0.00 | 43 | 1016.4 |
| 20260506193528 | 17 | 75 | 4.8 | 12.9 | 0.00 | 0.00 | 0.00 | 44 | 1016.4 |
| 20260506193028 | 17 | 49 | 8.0 | 14.5 | 0.00 | 0.00 | 0.00 | 45 | 1016.4 |
| 20260506192528 | 17 | 63 | 4.8 | 16.1 | 0.00 | 0.00 | 0.00 | 47 | 1016.4 |
| 20260506192028 | 16 | 18 | 3.2 | 9.7 | 0.00 | 0.00 | 0.00 | 48 | 1016.6 |
| 20260506191528 | 16 | 28 | 4.8 | 8.0 | 0.00 | 0.00 | 0.00 | 47 | 1016.7 |
| 20260506191029 | 16 | 75 | 8.0 | 12.9 | 0.00 | 0.00 | 0.00 | 47 | 1016.8 |
| 20260506190528 | 16 | 76 | 9.7 | 12.9 | 0.00 | 0.00 | 0.00 | 48 | 1017.0 |
| 20260506190028 | 16 | 59 | 8.0 | 17.7 | 0.00 | 0.00 | 0.00 | 49 | 1017.0 |
| 20260506185528 | 16 | 45 | 6.4 | 11.3 | 0.00 | 0.00 | 0.00 | 48 | 1017.1 |
| 20260506185028 | 16 | 40 | 4.8 | 12.9 | 0.00 | 0.00 | 0.00 | 48 | 1017.1 |
| 20260506184528 | 16 | 59 | 3.2 | 11.3 | 0.00 | 0.00 | 0.00 | 47 | 1017.2 |
| 20260506184028 | 17 | 62 | 6.4 | 16.1 | 0.00 | 0.00 | 0.00 | 45 | 1017.2 |
| 20260506183528 | 17 | 59 | 9.7 | 17.7 | 0.00 | 0.00 | 0.00 | 45 | 1017.2 |
| 20260506183028 | 16 | 80 | 9.7 | 16.1 | 0.00 | 0.00 | 0.00 | 47 | 1017.2 |
| 20260506182528 | 16 | 79 | 11.3 | 17.7 | 0.00 | 0.00 | 0.00 | 45 | 1017.3 |
| 20260506182028 | 16 | 71 | 11.3 | 16.1 | 0.00 | 0.00 | 0.00 | 46 | 1017.3 |
| 20260506181527 | 16 | 75 | 9.7 | 17.7 | 0.00 | 0.00 | 0.00 | 48 | 1017.4 |
| 20260506181028 | 16 | 24 | 4.8 | 12.9 | 0.00 | 0.00 | 0.00 | 49 | 1017.5 |
| 20260506180528 | 16 | 29 | 4.8 | 14.5 | 0.00 | 0.00 | 0.00 | 48 | 1017.5 |
| 20260506175028 | 16 | 75 | 9.7 | 19.3 | 0.00 | 0.00 | 0.00 | 48 | 1017.5 |
| 20260506174528 | 16 | 75 | 11.3 | 24.1 | 0.00 | 0.00 | 0.00 | 47 | 1017.5 |
| 20260506174028 | 16 | 52 | 9.7 | 14.5 | 0.00 | 0.00 | 0.00 | 47 | 1017.4 |
| 20260506173528 | 15 | 62 | 8.0 | 12.9 | 0.00 | 0.00 | 0.00 | 48 | 1017.4 |
| 20260506173028 | 15 | 77 | 11.3 | 22.5 | 0.00 | 0.00 | 0.00 | 47 | 1017.6 |
| 20260506172528 | 16 | 59 | 9.7 | 17.7 | 0.00 | 0.00 | 0.00 | 47 | 1017.7 |
| 20260506172028 | 16 | 59 | 6.4 | 14.5 | 0.00 | 0.00 | 0.00 | 49 | 1017.9 |
| 20260506171528 | 15 | 65 | 9.7 | 17.7 | 0.00 | 0.00 | 0.00 | 50 | 1018.0 |
| 20260506171028 | 16 | 72 | 9.7 | 17.7 | 0.00 | 0.00 | 0.00 | 49 | 1018.1 |
| 20260506170528 | 15 | 66 | 8.0 | 16.1 | 0.00 | 0.00 | 0.00 | 50 | 1018.2 |
| 20260506170028 | 15 | 74 | 9.7 | 19.3 | 0.00 | 0.00 | 0.00 | 50 | 1018.3 |
| 20260506165528 | 15 | 43 | 6.4 | 16.1 | 0.00 | 0.00 | 0.00 | 51 | 1018.3 |
| 20260506165028 | 15 | 84 | 9.7 | 14.5 | 0.00 | 0.00 | 0.00 | 50 | 1018.3 |
| 20260506164528 | 15 | 73 | 8.0 | 12.9 | 0.00 | 0.00 | 0.00 | 50 | 1018.3 |
| 20260506164028 | 15 | 75 | 8.0 | 17.7 | 0.00 | 0.00 | 0.00 | 51 | 1018.3 |
| 20260506163528 | 15 | 67 | 6.4 | 12.9 | 0.00 | 0.00 | 0.00 | 52 | 1018.2 |
| 20260506163028 | 14 | 15 | 4.8 | 12.9 | 0.00 | 0.00 | 0.00 | 54 | 1018.2 |
| 20260506162528 | 14 | 56 | 4.8 | 12.9 | 0.00 | 0.00 | 0.00 | 56 | 1018.1 |
| 20260506162028 | 13 | 33 | 4.8 | 9.7 | 0.00 | 0.00 | 0.00 | 54 | 1018.2 |
| 20260506161528 | 14 | 24 | 4.8 | 11.3 | 0.00 | 0.00 | 0.00 | 55 | 1018.1 |
| 20260506161028 | 14 | 54 | 6.4 | 16.1 | 0.00 | 0.00 | 0.00 | 55 | 1018.2 |
| 20260506160528 | 14 | 34 | 4.8 | 11.3 | 0.00 | 0.00 | 0.00 | 55 | 1018.1 |
| 20260506160028 | 14 | 41 | 6.4 | 12.9 | 0.00 | 0.00 | 0.00 | 56 | 1018.0 |
| 20260506155528 | 14 | 54 | 6.4 | 16.1 | 0.00 | 0.00 | 0.00 | 53 | 1017.9 |
| 20260506155028 | 14 | 37 | 4.8 | 14.5 | 0.00 | 0.00 | 0.00 | 53 | 1017.9 |
| 20260506154528 | 13 | 15 | 3.2 | 9.7 | 0.00 | 0.00 | 0.00 | 55 | 1017.9 |
| 20260506154028 | 13 | 47 | 6.4 | 12.9 | 0.00 | 0.00 | 0.00 | 56 | 1017.7 |
| 20260506153528 | 13 | 65 | 8.0 | 16.1 | 0.00 | 0.00 | 0.00 | 56 | 1017.5 |
| 20260506153028 | 13 | 85 | 9.7 | 14.5 | 0.00 | 0.00 | 0.00 | 55 | 1017.3 |
| 20260506152528 | 13 | 60 | 8.0 | 17.7 | 0.00 | 0.00 | 0.00 | 55 | 1017.2 |
| 20260506152028 | 13 | 41 | 4.8 | 9.7 | 0.00 | 0.00 | 0.00 | 58 | 1017.2 |
| 20260506151528 | 12 | 53 | 6.4 | 14.5 | 0.00 | 0.00 | 0.00 | 60 | 1017.2 |
| 20260506151028 | 12 | 77 | 9.7 | 14.5 | 0.00 | 0.00 | 0.00 | 58 | 1017.1 |
| 20260506150528 | 12 | 70 | 8.0 | 16.1 | 0.00 | 0.00 | 0.00 | 61 | 1017.0 |